THOR ABLESTAR R/B, 47

Orbit data source: Space-Track

THOR ABLESTAR R/B, 47 is space debris in LEO originally from a launch on Wed, 22 Jun 1960 UTC launched from the Air Force Eastern Test Range (AFETR). Debris objects in space refer to the collection of defunct objects orbiting the Earth. Examples of debris include non-operational satellites, rocket bodies, and fragments generated from explosions, collisions, or faulty payload assembly.

Loading next visibility...
Identifier
47, 1960-007C
Orbit
LEO
Country
Flag of USUS
Related business
Manufacturer
Aerojet
Mission
Spacecraft
Bus & Motor
ABLESTAR, Unknown motor
Mass
~600 kg wet, 600 kg dry
Launch date (UTC)
1960-06-22 (66 years ago)
Launch vehicle
Unknown
Launch site
Air Force Eastern Test Range (AFETR)
Object type
Payload
Rocket body
Debris
Shape & HBR
Unknown
Radar Cross Section
Large (>1 m²)

Expand to show TLE details & history
Last TLE update: 9 hours ago

TLE from 9 hours ago
0 THOR ABLESTAR R/B
1    47U 60007C   26145.27325243  .00000182  00000-0  63119-4 0  9995
2    47  66.6634 108.1565 0215365 156.5716 204.5386 14.45285381447490
Epoch: 2026-05-25T06:33Z
TLE epoch observation values (Epoch: 2026-05-25T06:33:29.009Z)
Latitude
-0.00003°
Longitude
126.9222°
Altitude
883.255 km
Speed
7.338 km/s
True Right ascension
07h 12m 37s
True Declination
0° 00' 00"
Sunlit
Object was in daylight at epoch
Visualization orbit readout
Latitude
Unknown
Longitude
Unknown
Altitude
Unknown
Speed
Unknown
Apparent Right ascension
Unknown
Apparent Declination
Unknown
Sunlit
N/A
Visualization observer readout
Local Sidereal Time
01:11:43
Azimuth
Unknown
Elevation
Unknown
Doppler factor
Unknown
Orbital elements
Apogee altitude
892.743 km
Perigee altitude
586.167 km
Semi-major axis
7,117.592 km
Eccentricity
0.02154
Inclination
66.6634°
RAAN
108.1565°
Arg. of periapsis
156.5716°
True anomaly
203.53824°
Mean anomaly
204.5386°
Eccentric anomaly
204.036°
Mean motion
3.61446 °/min
Orbital period
99.6 mins
BSTAR
0.000063119
Loading maneuver chart data...
Computing Atmospheric mass density...
Loading historical data...
Loading historical data...
Loading historical data...
Loading historical data...
Loading historical data...
Loading historical data...
Loading historical data...

Documentation

Showing up to 5 results
|